FW7570 Weather Reports


time (UTC)temp
C
wind
direction
speed
KPH
gust
KPH
rain 1hr
cm
rain 24hr
cm
rain mn
cm
humidity
%
barometer
mb
20260502214554 14 0 0.0 1.6 0.00 0.00 0.00 89 1015.3
20260502214054 14 0 0.0 1.6 0.00 0.00 0.00 89 1015.2
20260502213554 14 146 0.0 1.6 0.00 0.00 0.00 89 1015.4
20260502213101 13 0 0.0 1.6 0.00 0.00 0.00 89 1015.3
20260502212557 13 0 0.0 0.0 0.00 0.00 0.00 88 1015.4
20260502212054 14 0 0.0 1.6 0.00 0.00 0.00 88 1015.4
20260502211555 14 0 0.0 1.6 0.00 0.00 0.00 87 1015.3
20260502211057 14 0 0.0 0.0 0.00 0.00 0.00 87 1015.4
20260502210554 14 0 0.0 0.0 0.00 0.00 0.00 87 1015.3
20260502205557 15 0 0.0 3.2 0.00 0.00 0.00 86 1015.5
20260502205057 15 0 0.0 3.2 0.00 0.00 0.00 86 1015.5
20260502204608 15 0 0.0 3.2 0.00 0.00 0.00 86 1015.5
20260502204059 15 0 0.0 0.0 0.00 0.00 0.00 85 1015.6
20260502203557 15 0 0.0 0.0 0.00 0.00 0.00 86 1015.6
20260502203105 15 0 0.0 0.0 0.00 0.00 0.00 85 1015.6
20260502202554 15 0 0.0 1.6 0.00 0.00 0.00 84 1015.6
20260502202056 15 0 0.0 1.6 0.00 0.00 0.00 84 1015.6
20260502201556 16 0 0.0 1.6 0.00 0.00 0.00 83 1015.8
20260502201057 16 0 0.0 1.6 0.00 0.00 0.00 82 1015.6
20260502200554 16 0 0.0 1.6 0.00 0.00 0.00 82 1015.6
20260502200054 16 0 0.0 1.6 0.00 0.00 0.00 82 1015.5
20260502195553 16 0 0.0 1.6 0.00 0.00 0.00 82 1015.5
20260502195053 16 0 0.0 0.0 0.00 0.00 0.00 82 1015.5
20260502194557 16 0 0.0 0.0 0.00 0.00 0.00 81 1015.4
20260502194053 17 0 0.0 1.6 0.00 0.00 0.00 80 1015.5
20260502193554 17 0 0.0 1.6 0.00 0.00 0.00 80 1015.5
20260502193055 17 136 0.0 1.6 0.00 0.00 0.00 80 1015.5
20260502192557 17 0 0.0 1.6 0.00 0.00 0.00 80 1015.4
20260502192057 17 169 0.0 0.0 0.00 0.00 0.00 79 1015.4
20260502191621 17 0 0.0 0.0 0.00 0.00 0.00 78 1015.4
20260502191057 17 0 0.0 0.0 0.00 0.00 0.00 78 1015.6
20260502190557 17 0 0.0 0.0 0.00 0.00 0.00 78 1015.5
20260502190110 18 0 0.0 0.0 0.00 0.00 0.00 78 1015.4
20260502185557 18 0 0.0 0.0 0.00 0.00 0.00 78 1015.4
20260502185057 18 0 0.0 0.0 0.00 0.00 0.00 77 1015.5
20260502184556 18 0 0.0 0.0 0.00 0.00 0.00 76 1015.4
20260502184059 18 0 0.0 0.0 0.00 0.00 0.00 76 1015.5
20260502183603 18 0 0.0 0.0 0.00 0.00 0.00 75 1015.5
20260502183100 18 0 0.0 1.6 0.00 0.00 0.00 74 1015.4
20260502182554 18 0 0.0 4.8 0.00 0.00 0.00 74 1015.4
20260502182057 19 160 1.6 4.8 0.00 0.00 0.00 73 1015.4
20260502181558 19 151 0.0 0.0 0.00 0.00 0.00 70 1015.6
20260502181057 20 0 0.0 0.0 0.00 0.00 0.00 69 1015.5
20260502180557 20 0 0.0 1.6 0.00 0.00 0.00 68 1015.4
20260502180113 20 0 0.0 1.6 0.00 0.00 0.00 68 1015.4
20260502164056 22 0 0.0 4.8 0.00 0.00 0.00 59 1016.0
20260502163556 22 342 0.0 1.6 0.00 0.00 0.00 59 1015.9
20260502163110 22 0 0.0 1.6 0.00 0.00 0.00 59 1015.8
20260502162557 22 311 0.0 1.6 0.00 0.00 0.00 57 1015.9
20260502162057 22 0 0.0 1.6 0.00 0.00 0.00 60 1016.0
20260502161558 22 0 0.0 1.6 0.00 0.00 0.00 60 1016.0
20260502161057 22 0 0.0 1.6 0.00 0.00 0.00 60 1016.0
20260502160557 22 0 0.0 1.6 0.00 0.00 0.00 62 1016.0
20260502152058 23 281 0.0 3.2 0.00 0.00 0.00 56 1016.3
20260502151604 23 0 0.0 6.4 0.00 0.00 0.00 55 1016.5
20260502151058 23 160 1.6 6.4 0.00 0.00 0.00 54 1016.6
20260502150558 24 164 0.0 3.2 0.00 0.00 0.00 52 1016.6
20260502140107 25 238 0.0 6.4 0.00 0.00 0.00 50 1017.1
20260502130600 26 138 1.6 9.7 0.00 0.00 0.00 43 1017.4
20260502130110 26 229 3.2 9.7 0.00 0.00 0.00 42 1017.4
20260502123600 26 172 3.2 11.3 0.00 0.00 0.00 42 1017.6
20260502123105 26 205 4.8 11.3 0.00 0.00 0.00 43 1017.6
20260502122556 25 100 4.8 11.3 0.00 0.00 0.00 44 1017.7
20260502122056 25 206 3.2 12.9 0.00 0.00 0.00 44 1017.8
20260502121600 26 250 3.2 12.9 0.00 0.00 0.00 43 1017.8
20260502121148 26 250 6.4 12.9 0.00 0.00 0.00 43 1017.9
20260502120557 26 147 3.2 9.7 0.00 0.00 0.00 43 1017.9
20260502115559 26 148 3.2 16.1 0.00 0.00 0.00 43 1018.0
20260502115053 26 267 3.2 16.1 0.00 0.00 0.00 42 1018.0
20260502114555 26 20 4.8 20.9 0.00 0.00 0.00 42 1018.2
20260502114056 26 196 4.8 20.9 0.00 0.00 0.00 43 1018.2
20260502113556 26 164 3.2 11.3 0.00 0.00 0.00 42 1018.3
20260502113057 26 233 3.2 11.3 0.00 0.00 0.00 43 1018.3
20260502112556 26 246 6.4 12.9 0.00 0.00 0.00 41 1018.5
20260502112056 26 82 3.2 12.9 0.00 0.00 0.00 41 1018.6
20260502111556 26 136 3.2 12.9 0.00 0.00 0.00 40 1018.7
20260502111100 26 182 4.8 12.9 0.00 0.00 0.00 41 1018.6
20260502110601 26 229 1.6 4.8 0.00 0.00 0.00 40 1018.7
20260502110104 26 227 0.0 8.0 0.00 0.00 0.00 43 1018.9
20260502105558 25 179 1.6 8.0 0.00 0.00 0.00 45 1018.8
20260502105057 25 247 0.0 12.9 0.00 0.00 0.00 42 1019.0
20260502104554 25 150 4.8 12.9 0.00 0.00 0.00 43 1019.1
20260502104053 25 159 3.2 9.7 0.00 0.00 0.00 44 1019.2
20260502103556 25 264 1.6 9.7 0.00 0.00 0.00 44 1019.3
20260502103053 24 349 1.6 9.7 0.00 0.00 0.00 45 1019.4
20260502102554 23 124 1.6 9.7 0.00 0.00 0.00 45 1019.5
20260502102056 23 261 1.6 11.3 0.00 0.00 0.00 45 1019.5
20260502101555 23 168 3.2 11.3 0.00 0.00 0.00 45 1019.6
20260502101057 23 146 1.6 9.7 0.00 0.00 0.00 44 1019.7
20260502100555 23 147 1.6 8.0 0.00 0.00 0.00 45 1019.7
20260502091056 23 247 1.6 6.4 0.00 0.00 0.00 46 1020.1
20260502090556 22 243 1.6 6.4 0.00 0.00 0.00 46 1020.1
20260502071056 18 0 0.0 4.8 0.00 0.00 0.00 50 1020.6
20260502070557 18 145 0.0 4.8 0.00 0.00 0.00 49 1020.7
20260502065557 17 212 0.0 4.8 0.00 0.00 0.00 49 1020.6
20260502065057 17 139 1.6 6.4 0.00 0.00 0.00 49 1020.6
20260502064556 17 218 0.0 6.4 0.00 0.00 0.00 49 1020.6
20260502064054 17 202 0.0 6.4 0.00 0.00 0.00 49 1020.7
20260502063559 17 0 1.6 6.4 0.00 0.00 0.00 48 1020.5
20260502063057 17 152 0.0 4.8 0.00 0.00 0.00 47 1020.6
20260502062557 17 148 0.0 6.4 0.00 0.00 0.00 47 1020.7
20260502062056 17 252 0.0 8.0 0.00 0.00 0.00 47 1020.6
20260502061554 17 135 0.0 8.0 0.00 0.00 0.00 48 1020.6
20260502061056 17 156 1.6 4.8 0.00 0.00 0.00 47 1020.7
20260502060556 17 145 0.0 6.4 0.00 0.00 0.00 47 1020.5
20260502060101 16 167 1.6 6.4 0.00 0.00 0.00 48 1020.4
20260502055558 16 166 1.6 6.4 0.00 0.00 0.00 48 1020.5
20260502055056 16 240 1.6 9.7 0.00 0.00 0.00 48 1020.5
20260502054558 16 116 1.6 9.7 0.00 0.00 0.00 48 1020.5
20260502054056 16 136 3.2 8.0 0.00 0.00 0.00 48 1020.5
20260502053556 15 319 3.2 8.0 0.00 0.00 0.00 48 1020.6
20260502053059 15 219 1.6 6.4 0.00 0.00 0.00 49 1020.7
20260502052600 15 232 1.6 6.4 0.00 0.00 0.00 50 1020.6
20260502052056 15 304 1.6 14.5 0.00 0.00 0.00 51 1020.5
20260502051556 15 152 1.6 14.5 0.00 0.00 0.00 51 1020.7
20260502051056 15 0 3.2 14.5 0.00 0.00 0.00 50 1020.7
20260502050559 15 166 1.6 6.4 0.00 0.00 0.00 50 1020.7
20260502050055 15 266 3.2 11.3 0.00 0.00 0.00 50 1020.6
20260502045559 15 271 1.6 11.3 0.00 0.00 0.00 50 1020.6
20260502045057 15 256 0.0 8.0 0.00 0.00 0.00 50 1020.4
20260502044557 14 275 1.6 8.0 0.00 0.00 0.00 51 1020.5
20260502044057 13 262 1.6 4.8 0.00 0.00 0.00 52 1020.4
20260502043557 12 250 1.6 3.2 0.00 0.00 0.00 56 1020.4
20260502043107 11 155 0.0 1.6 0.00 0.00 0.00 58 1020.4
20260502042557 11 0 0.0 1.6 0.00 0.00 0.00 60 1020.3
20260502042057 11 0 0.0 0.0 0.00 0.00 0.00 60 1020.4
20260502041557 11 0 0.0 1.6 0.00 0.00 0.00 59 1020.4
20260502041056 11 0 0.0 1.6 0.00 0.00 0.00 59 1020.5
20260502040600 11 0 0.0 3.2 0.00 0.00 0.00 59 1020.5
20260502040057 11 0 0.0 3.2 0.00 0.00 0.00 59 1020.5
20260502035558 11 158 0.0 3.2 0.00 0.00 0.00 59 1020.5
20260502035058 11 0 0.0 4.8 0.00 0.00 0.00 60 1020.5
20260502034556 11 165 0.0 4.8 0.00 0.00 0.00 61 1020.7
20260502034057 11 150 0.0 4.8 0.00 0.00 0.00 62 1020.6
20260502033556 10 137 0.0 3.2 0.00 0.00 0.00 64 1020.7
20260502033056 10 160 0.0 1.6 0.00 0.00 0.00 66 1020.7
20260502032556 9 0 0.0 0.0 0.00 0.00 0.00 68 1020.8
20260502032057 8 0 0.0 0.0 0.00 0.00 0.00 68 1020.8
20260502031554 8 0 0.0 0.0 0.00 0.00 0.00 69 1020.7
20260502031056 8 0 0.0 0.0 0.00 0.00 0.00 69 1020.9
20260502030556 8 0 0.0 0.0 0.00 0.00 0.00 70 1020.8
20260502030054 8 0 0.0 0.0 0.00 0.00 0.00 71 1020.8
20260502025556 7 0 0.0 0.0 0.00 0.00 0.00 71 1020.7
20260502025056 7 0 0.0 0.0 0.00 0.00 0.00 71 1020.9
20260502024558 7 0 0.0 0.0 0.00 0.00 0.00 71 1020.9
20260502024056 7 0 0.0 0.0 0.00 0.00 0.00 71 1021.0
20260502023555 7 0 0.0 0.0 0.00 0.00 0.00 72 1020.9
20260502023058 7 0 0.0 0.0 0.00 0.00 0.00 72 1021.0
20260502022555 7 0 0.0 0.0 0.00 0.00 0.00 71 1021.0
20260502022058 7 0 0.0 0.0 0.00 0.00 0.00 70 1021.2
20260502021558 8 0 0.0 0.0 0.00 0.00 0.00 69 1021.1
20260502021055 8 0 0.0 1.6 0.00 0.00 0.00 68 1021.1
20260502020556 8 0 0.0 1.6 0.00 0.00 0.00 68 1021.1
20260502020057 8 146 0.0 3.2 0.00 0.00 0.00 68 1021.1
20260502015555 8 0 0.0 4.8 0.00 0.00 0.00 68 1021.3
20260502015057 8 143 0.0 4.8 0.00 0.00 0.00 68 1021.3
20260502014600 8 146 1.6 4.8 0.00 0.00 0.00 68 1021.3
20260502014056 8 135 1.6 6.4 0.00 0.00 0.00 67 1021.4
20260502013556 9 251 1.6 6.4 0.00 0.00 0.00 66 1021.4
20260502013102 9 155 3.2 6.4 0.00 0.00 0.00 65 1021.3
20260502012556 9 154 1.6 4.8 0.00 0.00 0.00 65 1021.5
20260502012056 9 162 1.6 4.8 0.00 0.00 0.00 65 1021.6
20260502011559 9 154 1.6 3.2 0.00 0.00 0.00 65 1021.6
20260502011055 9 160 1.6 3.2 0.00 0.00 0.00 65 1021.5
20260502010555 9 131 0.0 3.2 0.00 0.00 0.00 65 1021.6
20260502010101 9 144 0.0 3.2 0.00 0.00 0.00 66 1021.7
20260502005553 9 141 0.0 3.2 0.00 0.00 0.00 66 1021.7
20260502005056 8 141 0.0 4.8 0.00 0.00 0.00 67 1021.8
20260502004605 8 142 1.6 4.8 0.00 0.00 0.00 68 1021.8
20260502004059 8 156 0.0 3.2 0.00 0.00 0.00 69 1021.9
20260502003559 8 0 0.0 1.6 0.00 0.00 0.00 68 1022.0
20260502003058 8 0 0.0 1.6 0.00 0.00 0.00 68 1022.0
20260502002554 8 0 0.0 1.6 0.00 0.00 0.00 67 1022.1
20260502002058 9 143 0.0 3.2 0.00 0.00 0.00 67 1022.2
20260502001556 9 0 0.0 3.2 0.00 0.00 0.00 66 1022.2
20260502001059 9 144 0.0 3.2 0.00 0.00 0.00 65 1022.2
20260502000556 10 0 0.0 3.2 0.00 0.00 0.00 65 1022.3
20260502000111 10 145 0.0 3.2 0.00 0.00 0.00 64 1022.4
20260501235557 10 196 1.6 3.2 0.00 0.00 0.00 64 1022.3
20260501235055 9 150 1.6 3.2 0.00 0.00 0.00 65 1022.4
20260501234556 9 158 0.0 3.2 0.00 0.00 0.00 66 1022.4
20260501234056 9 143 0.0 1.6 0.00 0.00 0.00 66 1022.5
20260501233554 10 0 0.0 3.2 0.00 0.00 0.00 65 1022.5
20260501233106 10 0 0.0 4.8 0.00 0.00 0.00 64 1022.5
20260501232555 10 139 0.0 4.8 0.00 0.00 0.00 64 1022.5
20260501232056 10 143 1.6 4.8 0.00 0.00 0.00 63 1022.6
20260501231610 10 155 1.6 3.2 0.00 0.00 0.00 63 1022.6
20260501231053 10 154 0.0 1.6 0.00 0.00 0.00 64 1022.7
20260501230555 10 154 0.0 3.2 0.00 0.00 0.00 64 1022.7
20260501230107 10 0 0.0 4.8 0.00 0.00 0.00 64 1022.7
20260501225556 10 149 0.0 4.8 0.00 0.00 0.00 63 1022.6
20260501225056 10 148 1.6 3.2 0.00 0.00 0.00 63 1022.7
20260501224606 10 150 0.0 3.2 0.00 0.00 0.00 62 1022.8
20260501224056 11 146 1.6 3.2 0.00 0.00 0.00 62 1022.7
20260501223556 11 140 1.6 3.2 0.00 0.00 0.00 61 1022.7
20260501223103 11 151 0.0 1.6 0.00 0.00 0.00 61 1022.9
20260501222556 11 147 0.0 1.6 0.00 0.00 0.00 61 1022.9
20260501222055 11 0 0.0 1.6 0.00 0.00 0.00 60 1022.8
20260501221601 11 0 0.0 1.6 0.00 0.00 0.00 60 1022.8
20260501221055 11 150 0.0 0.0 0.00 0.00 0.00 60 1022.8
20260501220556 11 0 0.0 0.0 0.00 0.00 0.00 60 1022.8
20260501220059 11 0 0.0 0.0 0.00 0.00 0.00 61 1022.9
20260501215556 11 0 0.0 1.6 0.00 0.00 0.00 61 1022.9
20260501215056 11 0 0.0 1.6 0.00 0.00 0.00 60 1022.9